Location: El Bakhil
(32.7726°N, 5.5387°W)
Time: 07:10:18
(UTC+00:00)

AO-73 - Pass Details

Date: 10 August 2021
Orbit: 581 x 661 km, 97.6° (Epoch: 27 September)

Event Time Altitude Azimuth Distance (km) Brightness Sun altitude
Rises 04:26:24 0° 23° (NNE) 2,988 ? -15.3°
Reaches altitude 10° 04:28:49 10° 34° (NE) 2,078 ? -14.9°
Maximum altitude 04:32:53 32° 97° (E) 1,139 ? -14.1°
Drops below altitude 10° 04:36:56 10° 160° (SSE) 2,070 ? -13.4°
Sets 04:39:20 0° 171° (S) 2,974 ? -12.9°
